Simultaneous Nadir Overpasses (SNOs) Predictions

Prediction of SNOs between GOES-17 and NOAA-20 Satellite Orbit:

Table of predicted SNOs for the next 14.0 days since TLE Epoch: 3/9/2024
Index Date Time (GOES-17) GOES-17 Lat,Lon NOAA-20 Lat,Lon Distance(km) Time Diff (sec)
1 03/11/2024 08:26:54 -0.01,-104.71 0.08,-105.02 35.89 80
2 03/12/2024 08:05:29 -0.00,-104.71 -0.97,-100.49 481.20 80
3 03/13/2024 20:27:24 0.00,-104.70 -0.25,-105.78 124.39 80
4 03/14/2024 20:11:20 0.00,-104.70 0.80,-101.26 392.71 80
5 03/16/2024 08:33:06 -0.01,-104.72 0.41,-106.52 204.64 80
6 03/17/2024 08:11:42 -0.01,-104.72 -0.65,-101.99 312.27 80
7 03/18/2024 20:33:37 0.01,-104.71 -0.56,-107.28 293.68 80
8 03/19/2024 20:17:32 0.01,-104.71 0.44,-102.75 223.47 80
9 03/21/2024 08:39:19 -0.01,-104.74 0.70,-108.02 373.34 80
10 03/22/2024 08:17:53 -0.01,-104.74 -0.30,-103.48 144.00 80
